Location: Tel Aviv
(32.0670°N, 34.7670°E)
Time: 12:24:43
(UTC+03:00)

Gurwin Techsat 1B - Visible Passes

Search period start: 16 September 2024 00:00
Search period end: 26 September 2024 00:00
Orbit: 811 x 811 km, 98.9° (Epoch: 15 September)

Date Brightness Start Highest point End Pass type
(mag) Time Alt. Az. Time Alt. Az. Time Alt. Az.
16 Sep 9.7 03:56:03 10° NNE 04:01:03 41° E 04:02:44 32° SE visible
16 Sep 9.9 05:36:49 10° NNW 05:40:34 20° WNW 05:43:53 12° WSW visible
17 Sep 10.5 03:33:25 10° NE 03:37:39 24° E 03:39:04 21° ESE visible
17 Sep 9.3 05:12:46 10° N 05:17:28 33° WNW 05:20:14 20° WSW visible
18 Sep 11.2 03:11:37 10° ENE 03:14:10 13° E 03:15:25 13° ESE visible
18 Sep 8.6 04:49:07 10° N 04:54:19 57° WNW 04:56:35 32° SW visible
19 Sep 8.6 04:25:44 10° NNE 04:31:04 84° ESE 04:32:56 42° S visible
20 Sep 9.4 04:02:38 10° NNE 04:07:46 48° E 04:09:16 37° SE visible
20 Sep 10.1 05:43:48 10° NNW 05:47:11 17° WNW 05:50:26 10° WSW visible
21 Sep 10.3 03:39:52 10° NE 03:44:22 28° E 03:45:37 25° ESE visible
21 Sep 9.5 05:19:36 10° N 05:24:07 29° WNW 05:26:47 19° WSW visible
22 Sep 11.0 03:17:45 10° ENE 03:20:55 16° E 03:21:57 15° ESE visible
22 Sep 8.8 04:55:52 10° N 05:00:58 49° WNW 05:03:07 31° SW visible
23 Sep 8.5 04:32:25 10° NNE 04:37:45 85° WNW 04:39:27 45° SSW visible
24 Sep 9.1 04:09:14 10° NNE 04:14:26 56° E 04:15:47 43° SSE visible
24 Sep 10.2 05:50:50 10° NNW 05:53:47 15° WNW 05:56:43 10° W visible
25 Sep 10.1 03:46:22 10° NE 03:51:04 32° E 03:52:07 29° ESE visible
25 Sep 9.6 05:26:27 10° NNW 05:30:44 25° WNW 05:33:17 18° WSW visible
